Regional Weather Roundup
Issued by NWS Charleston, WV

Home | Current Version | Previous Version | Text Only | Print | Product List | Glossary On
Versions: 1 2 3 4 5 6 7 8 9 10 11 12 13 14 15 16 17 18 19 20 21 22 23 24 25 26 27 28 29 30 31 32 33 34 35 36 37 38 39 40 41 42 43 44 45 46 47 48 49 50
000
ASUS41 KRLX 192110
RWRRLX
West Virginia Regional Weather Roundup
National Weather Service Charleston WV
400 PM EST THU JAN 19 2017

Note: "fair" indicates few or no clouds below 12,000 feet with no
significant weather and/or obstructions to visibility.

WVZ003-192200-
Northern Panhandle of West Virginia

CITY           SKY/WX    TMP DP  RH WIND       PRES   REMARKS
WHEELING       CLOUDY    40  34  79 SW5       30.03R
$$

WVZ009-192200-
Northwest West Virginia

CITY           SKY/WX    TMP DP  RH WIND       PRES   REMARKS
PARKERSBURG    CLOUDY    45  37  73 S6        30.03F
$$

WVZ006-192200-
Western West Virginia

CITY           SKY/WX    TMP DP  RH WIND       PRES   REMARKS
HUNTINGTON     PTSUNNY   51  39  63 E7        29.96F
$$

WVZ015-192200-
West Central West Virginia

CITY           SKY/WX    TMP DP  RH WIND       PRES   REMARKS
CHARLESTON     CLOUDY    52  40  63 NE6       29.96F
$$

WVZ022-031-192200-
North Central West Virginia

CITY           SKY/WX    TMP DP  RH WIND       PRES   REMARKS
CLARKSBURG     CLOUDY    45  38  76 NW5       30.01S
MORGANTOWN     CLOUDY    47  36  65 W6        30.01F
$$

WVZ025-035-042-045-192200-
Southern West Virginia

CITY           SKY/WX    TMP DP  RH WIND       PRES   REMARKS
BECKLEY        CLOUDY    52  38  58 E3        29.96F
LOGAN            N/A     54  36  50 CALM      29.95F
BLUEFIELD      CLOUDY    58  21  24 CALM      29.97F
LEWISBURG      CLOUDY    48  37  64 CALM      29.99F
$$

WVZ047-192200-
Northern Mountains of West Virginia

CITY           SKY/WX    TMP DP  RH WIND       PRES   REMARKS
ELKINS         CLOUDY    53  38  56 CALM      29.97F
$$

WVZ052-192200-
Eastern Panhandle of West Virginia

CITY           SKY/WX    TMP DP  RH WIND       PRES   REMARKS
MARTINSBURG    CLOUDY    51  34  52 CALM      30.02R
PETERSBURG     CLOUDY    52  39  62 CALM      29.99F
$$



USA.gov is the U.S. government's official web portal to all federal, state and local government web resources and services.